| time (UTC) | temp C | wind direction | speed KPH | gust KPH | rain 1hr cm | rain 24hr cm | rain mn cm | humidity % | barometer mb |
| 20260502233656 | 22 | 138 | 0.0 | 0.0 | 0.00 | 0.00 | 0.00 | 46 | 980.5 |
| 20260502230346 | 25 | 138 | 0.0 | 0.0 | 0.00 | 0.00 | 0.00 | 42 | 980.5 |
| 20260502225328 | 25 | 138 | 0.0 | 0.0 | 0.00 | 0.00 | 0.00 | 42 | 980.5 |
| 20260502224335 | 25 | 140 | 0.0 | 0.0 | 0.00 | 0.00 | 0.00 | 42 | 980.4 |
| 20260502223320 | 25 | 140 | 0.0 | 0.0 | 0.00 | 0.00 | 0.00 | 43 | 980.5 |
| 20260502222324 | 24 | 140 | 0.0 | 0.0 | 0.00 | 0.00 | 0.00 | 46 | 980.6 |
| 20260502221250 | 24 | 140 | 0.0 | 0.0 | 0.00 | 0.00 | 0.00 | 41 | 980.6 |
| 20260502220219 | 25 | 119 | 0.0 | 1.6 | 0.00 | 0.00 | 0.00 | 39 | 980.7 |
| 20260502215155 | 25 | 115 | 0.0 | 1.6 | 0.00 | 0.00 | 0.00 | 39 | 980.7 |
| 20260502214142 | 25 | 148 | 0.0 | 0.0 | 0.00 | 0.00 | 0.00 | 42 | 980.8 |
| 20260502213114 | 24 | 154 | 0.0 | 0.0 | 0.00 | 0.00 | 0.00 | 44 | 980.9 |
| 20260502212121 | 24 | 161 | 0.0 | 1.6 | 0.00 | 0.00 | 0.00 | 41 | 981.1 |
| 20260502211140 | 24 | 151 | 0.0 | 0.0 | 0.00 | 0.00 | 0.00 | 44 | 981.2 |
| 20260502210134 | 24 | 146 | 0.0 | 0.0 | 0.00 | 0.00 | 0.00 | 44 | 981.3 |
| 20260502203957 | 24 | 190 | 0.0 | 1.6 | 0.00 | 0.00 | 0.00 | 42 | 981.6 |
| 20260502203011 | 24 | 50 | 0.0 | 6.4 | 0.00 | 0.00 | 0.00 | 40 | 981.7 |
| 20260502202029 | 24 | 330 | 0.0 | 4.8 | 0.00 | 0.00 | 0.00 | 43 | 981.8 |
| 20260502201029 | 25 | 285 | 0.0 | 0.0 | 0.00 | 0.00 | 0.00 | 50 | 981.9 |
| 20260502200038 | 24 | 297 | 0.0 | 1.6 | 0.00 | 0.00 | 0.00 | 51 | 981.9 |
| 20260502195005 | 24 | 313 | 0.0 | 0.0 | 0.00 | 0.00 | 0.00 | 48 | 982.0 |
| 20260502194022 | 24 | 315 | 0.0 | 0.0 | 0.00 | 0.00 | 0.00 | 49 | 981.9 |
| 20260502193039 | 24 | 317 | 0.0 | 0.0 | 0.00 | 0.00 | 0.00 | 50 | 982.0 |
| 20260502190923 | 23 | 307 | 0.0 | 0.0 | 0.00 | 0.00 | 0.00 | 51 | 982.1 |
| 20260502185937 | 23 | 301 | 0.0 | 0.0 | 0.00 | 0.00 | 0.00 | 54 | 982.2 |
| 20260502184934 | 23 | 301 | 0.0 | 0.0 | 0.00 | 0.00 | 0.00 | 55 | 982.2 |
| 20260502183940 | 22 | 296 | 0.0 | 0.0 | 0.00 | 0.00 | 0.00 | 57 | 982.4 |
| 20260502181921 | 23 | 321 | 0.0 | 0.0 | 0.00 | 0.00 | 0.00 | 57 | 982.5 |
| 20260502162703 | 20 | 168 | 0.0 | 0.0 | 0.00 | 0.00 | 0.00 | 61 | 983.7 |
| 20260502160545 | 20 | 170 | 0.0 | 0.0 | 0.00 | 0.00 | 0.00 | 62 | 983.8 |
| 20260502150538 | 17 | 171 | 0.0 | 0.0 | 0.00 | 0.00 | 0.00 | 22 | 983.6 |
| 20260502123715 | 8 | 171 | 0.0 | 0.0 | 0.00 | 0.00 | 0.00 | 1 | 982.1 |
| 20260502122739 | 8 | 171 | 0.0 | 0.0 | 0.00 | 0.00 | 0.00 | 1 | 981.9 |
| 20260502121754 | 8 | 171 | 0.0 | 0.0 | 0.00 | 0.00 | 0.00 | 1 | 981.8 |
| 20260502120725 | 8 | 171 | 0.0 | 0.0 | 0.00 | 0.00 | 0.00 | 1 | 981.7 |
| 20260502115721 | 8 | 171 | 0.0 | 0.0 | 0.00 | 0.00 | 0.00 | 1 | 981.4 |
| 20260502113555 | 8 | 171 | 0.0 | 0.0 | 0.00 | 0.00 | 0.00 | 1 | 981.2 |
| 20260502112616 | 8 | 171 | 0.0 | 0.0 | 0.00 | 0.00 | 0.00 | 1 | 981.1 |
| 20260502111625 | 9 | 171 | 0.0 | 0.0 | 0.00 | 0.00 | 0.00 | 1 | 981.1 |
| 20260502110559 | 9 | 171 | 0.0 | 0.0 | 0.00 | 0.00 | 0.00 | 1 | 980.8 |
| 20260502105617 | 9 | 171 | 0.0 | 0.0 | 0.00 | 0.00 | 0.00 | 1 | 980.8 |
| 20260502104614 | 9 | 171 | 0.0 | 0.0 | 0.00 | 0.00 | 0.00 | 1 | 980.5 |
| 20260502102528 | 9 | 171 | 0.0 | 0.0 | 0.00 | 0.00 | 0.00 | 1 | 980.1 |
| 20260502100319 | 10 | 171 | 0.0 | 0.0 | 0.00 | 0.00 | 0.00 | 1 | 979.7 |
| 20260502064534 | 10 | 171 | 0.0 | 0.0 | 0.00 | 0.00 | 0.00 | 1 | 979.3 |
| 20260502062441 | 10 | 171 | 0.0 | 0.0 | 0.00 | 0.00 | 0.00 | 1 | 979.1 |
| 20260502061426 | 10 | 171 | 0.0 | 0.0 | 0.00 | 0.00 | 0.00 | 1 | 979.1 |
| 20260502060438 | 11 | 171 | 0.0 | 0.0 | 0.00 | 0.00 | 0.00 | 1 | 979.4 |
| 20260502055432 | 11 | 171 | 0.0 | 0.0 | 0.00 | 0.00 | 0.00 | 1 | 979.4 |
| 20260502054439 | 11 | 171 | 0.0 | 0.0 | 0.00 | 0.00 | 0.00 | 1 | 979.4 |
| 20260502053408 | 11 | 171 | 0.0 | 0.0 | 0.00 | 0.00 | 0.00 | 1 | 979.3 |
| 20260502051235 | 11 | 171 | 0.0 | 0.0 | 0.00 | 0.00 | 0.00 | 1 | 979.0 |
| 20260502050239 | 11 | 171 | 0.0 | 0.0 | 0.00 | 0.00 | 0.00 | 1 | 979.1 |
| 20260502045234 | 11 | 171 | 0.0 | 0.0 | 0.00 | 0.00 | 0.00 | 1 | 979.1 |
| 20260502044252 | 11 | 171 | 0.0 | 0.0 | 0.00 | 0.00 | 0.00 | 1 | 979.1 |
| 20260502043244 | 11 | 171 | 0.0 | 0.0 | 0.00 | 0.00 | 0.00 | 1 | 979.0 |
| 20260502042258 | 11 | 171 | 0.0 | 0.0 | 0.00 | 0.00 | 0.00 | 1 | 979.1 |
| 20260502041306 | 11 | 171 | 0.0 | 0.0 | 0.00 | 0.00 | 0.00 | 1 | 979.0 |
| 20260502040245 | 11 | 171 | 0.0 | 0.0 | 0.00 | 0.00 | 0.00 | 1 | 979.1 |
| 20260502035251 | 11 | 171 | 0.0 | 0.0 | 0.00 | 0.00 | 0.00 | 1 | 979.0 |
| 20260502034219 | 11 | 171 | 0.0 | 0.0 | 0.00 | 0.00 | 0.00 | 1 | 979.1 |
| 20260502033211 | 11 | 171 | 0.0 | 0.0 | 0.00 | 0.00 | 0.00 | 1 | 979.1 |
| 20260502032138 | 11 | 172 | 0.0 | 0.0 | 0.00 | 0.00 | 0.00 | 1 | 979.0 |
| 20260502031203 | 12 | 172 | 0.0 | 0.0 | 0.00 | 0.00 | 0.00 | 1 | 978.9 |
| 20260502030206 | 12 | 172 | 0.0 | 0.0 | 0.00 | 0.00 | 0.00 | 1 | 978.7 |
| 20260502025141 | 12 | 172 | 0.0 | 0.0 | 0.00 | 0.00 | 0.00 | 1 | 978.5 |
| 20260502024140 | 12 | 172 | 0.0 | 0.0 | 0.00 | 0.00 | 0.00 | 1 | 978.4 |
| 20260502023203 | 12 | 172 | 0.0 | 0.0 | 0.00 | 0.00 | 0.00 | 1 | 978.2 |
| 20260502015931 | 12 | 169 | 0.0 | 0.0 | 0.00 | 0.00 | 0.00 | 1 | 977.8 |
| 20260502014952 | 12 | 169 | 0.0 | 0.0 | 0.00 | 0.00 | 0.00 | 1 | 977.6 |
| 20260502014007 | 12 | 170 | 0.0 | 0.0 | 0.00 | 0.00 | 0.00 | 1 | 977.3 |
| 20260502011923 | 12 | 170 | 0.0 | 0.0 | 0.00 | 0.00 | 0.00 | 1 | 977.0 |
| 20260502010923 | 12 | 170 | 0.0 | 1.6 | 0.00 | 0.00 | 0.00 | 1 | 976.9 |
| 20260502004736 | 12 | 171 | 0.0 | 0.0 | 0.00 | 0.00 | 0.00 | 1 | 976.4 |
| 20260502002559 | 12 | 179 | 0.0 | 0.0 | 0.00 | 0.00 | 0.00 | 1 | 976.0 |
| 20260502001555 | 12 | 183 | 0.0 | 3.2 | 0.00 | 0.00 | 0.00 | 1 | 975.8 |
| 20260502000542 | 12 | 168 | 0.0 | 1.6 | 0.00 | 0.00 | 0.00 | 1 | 975.7 |
| 20260501235544 | 12 | 160 | 0.0 | 0.0 | 0.00 | 0.00 | 0.00 | 1 | 975.6 |
| 20260501234603 | 12 | 290 | 0.0 | 1.6 | 0.00 | 0.00 | 0.00 | 1 | 975.7 |